Time,TemperatureF,DewpointF,PressureIn,WindDirection,WindDirectionDegrees,WindSpeedMPH,WindSpeedGustMPH,Humidity,HourlyPrecipIn,Conditions,Clouds,dailyrainin,SoftwareType,DateUTC
2013-03-02 00:09:00,25.5,21.1,30.32,NNW,348,6.0,9.0,83,0.00,,---,0.00,VWS V14.01,2013-03-02 06:09:00,
2013-03-02 00:24:00,25.8,19.9,30.33,North,355,7.0,10.0,78,0.00,,---,0.00,VWS V14.01,2013-03-02 06:24:00,
2013-03-02 00:39:00,25.8,19.3,30.33,North,349,5.0,12.0,76,0.00,,---,0.00,VWS V14.01,2013-03-02 06:39:00,
2013-03-02 00:54:00,25.8,19.3,30.33,NNW,342,2.0,11.0,76,0.00,,---,0.00,VWS V14.01,2013-03-02 06:54:00,
2013-03-02 01:09:00,25.6,19.4,30.32,North,350,7.0,10.0,77,0.00,,---,0.00,VWS V14.01,2013-03-02 07:09:00,
2013-03-02 01:24:00,25.6,19.4,30.33,North,355,6.0,11.0,77,0.00,,---,0.00,VWS V14.01,2013-03-02 07:24:00,
2013-03-02 01:39:00,25.4,19.2,30.33,NNW,348,6.0,10.0,77,0.00,,---,0.00,VWS V14.01,2013-03-02 07:39:00,
2013-03-02 01:54:00,25.3,18.8,30.32,North,355,7.0,12.0,76,0.00,,---,0.00,VWS V14.01,2013-03-02 07:54:00,
2013-03-02 02:09:00,25.2,18.7,30.32,North,355,3.0,12.0,76,0.00,,---,0.00,VWS V14.01,2013-03-02 08:09:00,
2013-03-02 02:24:00,25.1,18.6,30.32,North,360,3.0,11.0,76,0.00,,---,0.00,VWS V14.01,2013-03-02 08:24:00,
2013-03-02 02:39:00,24.8,18.6,30.32,NNW,348,5.0,10.0,77,0.00,,---,0.00,VWS V14.01,2013-03-02 08:39:00,
2013-03-02 02:54:00,24.6,18.1,30.31,NNW,341,5.0,9.0,76,0.00,,---,0.00,VWS V14.01,2013-03-02 08:54:00,
2013-03-02 03:09:00,24.4,17.9,30.32,NNW,345,3.0,8.0,76,0.00,,---,0.00,VWS V14.01,2013-03-02 09:09:00,
2013-03-02 03:24:00,24.2,17.7,30.32,NNW,336,5.0,8.0,76,0.00,,---,0.00,VWS V14.01,2013-03-02 09:24:00,
2013-03-02 03:39:00,24.0,17.2,30.32,NNW,329,4.0,9.0,75,0.00,,---,0.00,VWS V14.01,2013-03-02 09:39:00,
2013-03-02 03:54:00,23.6,16.9,30.32,NNW,333,8.0,11.0,75,0.00,,---,0.00,VWS V14.01,2013-03-02 09:54:00,
2013-03-02 04:09:00,23.5,16.5,30.32,NNW,338,5.0,11.0,74,0.00,,---,0.00,VWS V14.01,2013-03-02 10:09:00,
2013-03-02 04:24:00,23.4,16.7,30.33,NNW,348,8.0,9.0,75,0.00,,---,0.00,VWS V14.01,2013-03-02 10:24:00,
2013-03-02 04:54:00,23.2,16.5,30.33,North,351,3.0,9.0,75,0.00,,---,0.00,VWS V14.01,2013-03-02 10:54:00,
2013-03-02 05:09:00,23.1,16.7,30.33,NNW,347,4.0,10.0,76,0.00,,---,0.00,VWS V14.01,2013-03-02 11:09:00,
2013-03-02 05:24:00,23.1,16.7,30.34,NNW,342,2.0,8.0,76,0.00,,---,0.00,VWS V14.01,2013-03-02 11:24:00,
2013-03-02 05:39:00,23.0,16.6,30.34,NNW,341,4.0,8.0,76,0.00,,---,0.00,VWS V14.01,2013-03-02 11:39:00,
2013-03-02 05:54:00,22.9,16.5,30.34,NNW,328,5.0,10.0,76,0.00,,---,0.00,VWS V14.01,2013-03-02 11:54:00,
2013-03-02 06:09:00,22.9,16.5,30.35,NNW,327,5.0,8.0,76,0.00,,---,0.00,VWS V14.01,2013-03-02 12:09:00,
2013-03-02 06:24:00,22.7,16.3,30.35,NNW,328,7.0,9.0,76,0.00,,---,0.00,VWS V14.01,2013-03-02 12:24:00,
2013-03-02 06:39:00,22.7,16.3,30.35,NW,319,6.0,9.0,76,0.00,,---,0.00,VWS V14.01,2013-03-02 12:39:00,
2013-03-02 06:54:00,22.6,16.2,30.35,NW,325,5.0,10.0,76,0.00,,---,0.00,VWS V14.01,2013-03-02 12:54:00,
2013-03-02 07:09:00,22.6,16.5,30.35,NNW,344,6.0,9.0,77,0.00,,---,0.00,VWS V14.01,2013-03-02 13:09:00,
2013-03-02 07:24:00,22.6,16.5,30.36,NNW,329,2.0,8.0,77,0.00,,---,0.00,VWS V14.01,2013-03-02 13:24:00,
2013-03-02 07:39:00,22.7,16.3,30.36,NW,319,4.0,9.0,76,0.00,,---,0.00,VWS V14.01,2013-03-02 13:39:00,
2013-03-02 07:54:00,22.8,16.4,30.36,NW,325,2.0,7.0,76,0.00,,---,0.00,VWS V14.01,2013-03-02 13:54:00,
2013-03-02 08:09:00,22.9,16.5,30.37,NW,311,3.0,7.0,76,0.00,,---,0.00,VWS V14.01,2013-03-02 14:09:00,
2013-03-02 08:24:00,23.0,16.6,30.37,NW,323,4.0,10.0,76,0.00,,---,0.00,VWS V14.01,2013-03-02 14:24:00,
2013-03-02 08:39:00,23.1,16.7,30.36,North,360,4.0,10.0,76,0.00,,---,0.00,VWS V14.01,2013-03-02 14:39:00,
2013-03-02 08:54:00,23.3,16.9,30.35,North,5,6.0,8.0,76,0.00,,---,0.00,VWS V14.01,2013-03-02 14:54:00,
2013-03-02 09:09:00,23.6,17.2,30.36,North,349,5.0,10.0,76,0.00,,---,0.00,VWS V14.01,2013-03-02 15:09:00,
2013-03-02 09:24:00,23.6,16.9,30.36,NNW,345,4.0,9.0,75,0.00,,---,0.00,VWS V14.01,2013-03-02 15:24:00,
2013-03-02 09:39:00,24.5,17.4,30.36,North,351,5.0,9.0,74,0.00,,---,0.00,VWS V14.01,2013-03-02 15:39:00,
2013-03-02 09:54:00,24.5,17.4,30.36,NNW,331,5.0,10.0,74,0.00,,---,0.00,VWS V14.01,2013-03-02 15:54:00,
2013-03-02 10:09:00,25.0,17.3,30.36,North,355,5.0,9.0,72,0.00,,---,0.00,VWS V14.01,2013-03-02 16:09:00,
2013-03-02 10:24:00,25.0,17.3,30.36,NNW,333,4.0,9.0,72,0.00,,---,0.00,VWS V14.01,2013-03-02 16:24:00,
2013-03-02 10:39:00,25.6,17.8,30.36,NNW,338,5.0,9.0,72,0.00,,---,0.00,VWS V14.01,2013-03-02 16:39:00,
2013-03-02 10:54:00,26.1,17.7,30.36,NNW,334,6.0,8.0,70,0.00,,---,0.00,VWS V14.01,2013-03-02 16:54:00,
2013-03-02 11:10:00,26.2,17.8,30.35,NNW,342,3.0,8.0,70,0.00,,---,0.00,VWS V14.01,2013-03-02 17:10:00,
2013-03-02 11:25:00,27.0,18.5,30.35,NNW,342,3.0,6.0,70,0.00,,---,0.00,VWS V14.01,2013-03-02 17:25:00,
2013-03-02 11:39:00,27.5,18.7,30.35,NNW,342,4.0,7.0,69,0.00,,---,0.00,VWS V14.01,2013-03-02 17:39:00,
2013-03-02 11:55:00,27.8,18.6,30.34,NNW,342,1.0,6.0,68,0.00,,---,0.00,VWS V14.01,2013-03-02 17:55:00,
2013-03-02 12:10:00,29.3,19.4,30.34,NNW,342,2.0,4.0,66,0.00,,---,0.00,VWS V14.01,2013-03-02 18:10:00,
2013-03-02 12:25:00,29.2,19.6,30.33,NNW,340,2.0,4.0,67,0.00,,---,0.00,VWS V14.01,2013-03-02 18:25:00,
2013-03-02 12:40:00,28.8,19.2,30.33,NW,307,1.0,6.0,67,0.00,,---,0.00,VWS V14.01,2013-03-02 18:40:00,
2013-03-02 12:55:00,29.3,19.4,30.32,WSW,242,2.0,6.0,66,0.00,,---,0.00,VWS V14.01,2013-03-02 18:55:00,
2013-03-02 13:10:00,29.4,19.5,30.31,WSW,240,1.0,6.0,66,0.01,,---,0.01,VWS V14.01,2013-03-02 19:10:00,
2013-03-02 13:25:00,29.9,19.9,30.31,WSW,238,3.0,6.0,66,0.01,,---,0.01,VWS V14.01,2013-03-02 19:25:00,
2013-03-02 13:40:00,30.0,19.3,30.30,WSW,240,2.0,6.0,64,0.01,,---,0.01,VWS V14.01,2013-03-02 19:40:00,
2013-03-02 13:55:00,30.5,19.8,30.29,WSW,238,2.0,6.0,64,0.01,,---,0.01,VWS V14.01,2013-03-02 19:55:00,
2013-03-02 14:10:00,31.5,20.0,30.29,WSW,238,1.0,5.0,62,0.01,,---,0.01,VWS V14.01,2013-03-02 20:10:00,
2013-03-02 14:25:00,31.8,19.5,30.29,WSW,238,0.0,4.0,60,0.00,,---,0.01,VWS V14.01,2013-03-02 20:25:00,
2013-03-02 14:40:00,32.1,19.8,30.29,WSW,238,2.0,5.0,60,0.00,,---,0.01,VWS V14.01,2013-03-02 20:40:00,
2013-03-02 14:55:00,31.6,19.7,30.28,WSW,238,3.0,5.0,61,0.00,,---,0.01,VWS V14.01,2013-03-02 20:55:00,
2013-03-02 15:10:00,31.7,19.8,30.28,WSW,238,2.0,5.0,61,0.00,,---,0.01,VWS V14.01,2013-03-02 21:10:00,
2013-03-02 15:25:00,31.8,19.9,30.28,WSW,238,4.0,6.0,61,0.01,,---,0.02,VWS V14.01,2013-03-02 21:25:00,
2013-03-02 15:40:00,31.7,19.8,30.27,WSW,238,1.0,6.0,61,0.01,,---,0.02,VWS V14.01,2013-03-02 21:40:00,
2013-03-02 15:55:00,32.5,20.2,30.27,WSW,238,2.0,4.0,60,0.01,,---,0.02,VWS V14.01,2013-03-02 21:55:00,
2013-03-02 16:10:00,32.0,19.7,30.27,WSW,238,2.0,4.0,60,0.01,,---,0.02,VWS V14.01,2013-03-02 22:10:00,
2013-03-02 16:25:00,32.7,19.6,30.27,WSW,238,1.0,3.0,58,0.01,,---,0.02,VWS V14.01,2013-03-02 22:25:00,
2013-03-02 16:40:00,32.0,19.7,30.27,WSW,238,2.0,4.0,60,0.00,,---,0.02,VWS V14.01,2013-03-02 22:40:00,
2013-03-02 16:55:00,32.1,19.8,30.26,WSW,238,0.0,3.0,60,0.00,,---,0.02,VWS V14.01,2013-03-02 22:55:00,
2013-03-02 17:10:00,32.7,20.4,30.26,WSW,238,0.0,3.0,60,0.00,,---,0.02,VWS V14.01,2013-03-02 23:10:00,
2013-03-02 17:25:00,31.6,20.1,30.26,WSW,238,0.0,3.0,62,0.00,,---,0.02,VWS V14.01,2013-03-02 23:25:00,
2013-03-02 17:40:00,30.4,19.7,30.26,WSW,238,0.0,2.0,64,0.00,,---,0.02,VWS V14.01,2013-03-02 23:40:00,
2013-03-02 17:55:00,29.6,19.6,30.26,WSW,238,0.0,1.0,66,0.00,,---,0.02,VWS V14.01,2013-03-02 23:55:00,
2013-03-02 18:10:00,28.9,19.3,30.25,WSW,238,0.0,0.0,67,0.00,,---,0.02,VWS V14.01,2013-03-03 00:10:00,
2013-03-02 18:25:00,28.5,19.3,30.25,WSW,238,0.0,0.0,68,0.00,,---,0.02,VWS V14.01,2013-03-03 00:25:00,
2013-03-02 18:40:00,28.1,19.6,30.25,WSW,238,0.0,0.0,70,0.00,,---,0.02,VWS V14.01,2013-03-03 00:40:00,
2013-03-02 18:55:00,27.8,20.0,30.25,WSW,238,0.0,0.0,72,0.00,,---,0.02,VWS V14.01,2013-03-03 00:55:00,
2013-03-02 19:10:00,27.9,20.1,30.25,WSW,238,0.0,0.0,72,0.00,,---,0.02,VWS V14.01,2013-03-03 01:10:00,
2013-03-02 19:25:00,27.7,19.9,30.25,WSW,238,0.0,1.0,72,0.00,,---,0.02,VWS V14.01,2013-03-03 01:25:00,
2013-03-02 19:40:00,27.5,20.0,30.24,WSW,238,0.0,0.0,73,0.00,,---,0.02,VWS V14.01,2013-03-03 01:40:00,
2013-03-02 19:55:00,27.3,19.8,30.24,WSW,238,0.0,2.0,73,0.00,,---,0.02,VWS V14.01,2013-03-03 01:55:00,
2013-03-02 20:10:00,27.0,19.8,30.24,WSW,238,0.0,1.0,74,0.00,,---,0.02,VWS V14.01,2013-03-03 02:10:00,
2013-03-02 20:25:00,27.1,19.9,30.23,WSW,238,0.0,2.0,74,0.00,,---,0.02,VWS V14.01,2013-03-03 02:25:00,
2013-03-02 20:40:00,26.9,19.7,30.23,WSW,238,0.0,2.0,74,0.00,,---,0.02,VWS V14.01,2013-03-03 02:40:00,
2013-03-02 20:55:00,26.8,20.0,30.22,WSW,238,0.0,2.0,75,0.00,,---,0.02,VWS V14.01,2013-03-03 02:55:00,
2013-03-02 21:10:00,27.1,20.2,30.22,WSW,238,2.0,3.0,75,0.00,,---,0.02,VWS V14.01,2013-03-03 03:10:00,
2013-03-02 21:25:00,27.1,20.5,30.22,WSW,238,0.0,3.0,76,0.00,,---,0.02,VWS V14.01,2013-03-03 03:25:00,
2013-03-02 21:40:00,27.1,20.5,30.22,WSW,238,0.0,3.0,76,0.00,,---,0.02,VWS V14.01,2013-03-03 03:40:00,
2013-03-02 21:55:00,27.2,21.0,30.22,WSW,238,1.0,4.0,77,0.00,,---,0.02,VWS V14.01,2013-03-03 03:55:00,
2013-03-02 22:10:00,27.2,21.0,30.22,WSW,238,0.0,4.0,77,0.00,,---,0.02,VWS V14.01,2013-03-03 04:10:00,
2013-03-02 22:25:00,27.1,20.9,30.22,WSW,238,2.0,5.0,77,0.00,,---,0.02,VWS V14.01,2013-03-03 04:25:00,
2013-03-02 22:40:00,27.2,20.6,30.21,WSW,238,3.0,6.0,76,0.00,,---,0.02,VWS V14.01,2013-03-03 04:40:00,
2013-03-02 22:55:00,27.4,21.1,30.21,WSW,238,2.0,6.0,77,0.00,,---,0.02,VWS V14.01,2013-03-03 04:55:00,
2013-03-02 23:10:00,27.5,21.2,30.20,WSW,238,1.0,5.0,77,0.00,,---,0.02,VWS V14.01,2013-03-03 05:10:00,
2013-03-02 23:25:00,27.6,21.4,30.19,WSW,238,2.0,4.0,77,0.00,,---,0.02,VWS V14.01,2013-03-03 05:25:00,
2013-03-02 23:40:00,27.6,21.4,30.19,SW,235,1.0,6.0,77,0.00,,---,0.02,VWS V14.01,2013-03-03 05:40:00,
2013-03-02 23:55:00,27.7,21.4,30.19,SW,235,1.0,3.0,77,0.00,,---,0.02,VWS V14.01,2013-03-03 05:55:00,